Weather History for Perry, IA

Change the Weather History Date:

Saturday, January 25, 2014

  Actual Average Record
Temperature  
Mean Temperature 27 °F -  
Max Temperature 38 °F 31 °F 62 °F (1981)
Min Temperature 16 °F 12 °F -14 °F (1972)
Degree Days  
Heating Degree Days 38    
Moisture  
Dew Point 7 °F    
Average Humidity 49    
Maximum Humidity 87    
Minimum Humidity 23    
Precipitation  
Precipitation 0.00 in - - ()
Sea Level Pressure  
Sea Level Pressure 29.84 in    
Wind  
Wind Speed 17 mph (NW)    
Max Wind Speed 30 mph    
Max Gust Speed 38 mph    
Visibility 10 miles    
Events Snow    
Averages and records for this station are not official NWS values.
T = Trace of Precipitation, MM = Missing Value Source: NWS Daily Summary

Daily Weather History Graph

Daily Weather History Graph

Search for Another Location

Airport:

Trip Planner

Search our weather history database for the weather conditions in past years. The results will help you decide how hot, cold, wet, or windy it might be!

Date:

Astronomy

Jan. 25, 2014 Rise Set
Actual Time 7:35 AM CST 5:23 PM CST
Civil Twilight 7:05 AM CST 5:53 PM CST
Nautical Twilight 6:31 AM CST 6:26 PM CST
Astronomical Twilight 5:58 AM CST 6:59 PM CST
Moon 2:07 AM CST (1/25) 12:24 PM CST (1/25)
Length of Visible Light 10h 47m
Length of Day
9h 47m
Waning Crescent, 34% of the Moon is Illuminated
Jan 25
Waning Crescent
Jan 30
New
Feb 6
First Quarter
Feb 14
Full
Feb 22
Last Quarter

Hourly Weather History & Observations

Time (CST) Temp. Windchill Dew Point Humidity Pressure Visibility Wind Dir Wind Speed Gust Speed Precip Events Conditions
12:15 AM 38.7 °F 28.8 °F 33.3 °F 81% 29.67 in 10.0 mi NNW 19.6 mph 24.2 mph N/A   Overcast
12:35 AM 37.8 °F 28.0 °F 33.8 °F 86% 29.68 in 5.0 mi NNW 18.4 mph 24.2 mph N/A   Overcast
12:55 AM 36.7 °F 26.9 °F 33.1 °F 87% 29.69 in 10.0 mi NNW 17.3 mph 21.9 mph N/A   Overcast
1:15 AM 36.5 °F 29.2 °F 32.5 °F 86% 29.69 in 10.0 mi NW 10.4 mph - N/A   Overcast
1:35 AM 36.5 °F 29.2 °F 31.5 °F 82% 29.69 in 10.0 mi NW 10.4 mph - N/A   Overcast
1:55 AM 36.1 °F 29.3 °F 30.9 °F 81% 29.70 in 10.0 mi NW 9.2 mph - N/A   Overcast
2:15 AM 36.1 °F 29.3 °F 31.5 °F 83% 29.71 in 10.0 mi NW 9.2 mph - N/A   Overcast
2:35 AM 36.0 °F 29.6 °F 31.6 °F 84% 29.72 in 10.0 mi WNW 8.1 mph - N/A   Overcast
2:55 AM 36.0 °F 28.0 °F 31.8 °F 85% 29.72 in 10.0 mi NW 11.5 mph 16.1 mph N/A   Overcast
3:15 AM 35.8 °F 28.3 °F 30.7 °F 82% 29.73 in 10.0 mi WNW 10.4 mph 18.4 mph N/A   Mostly Cloudy
3:35 AM 35.1 °F 26.4 °F 29.7 °F 81% 29.73 in 10.0 mi NW 12.7 mph 19.6 mph N/A   Scattered Clouds
3:55 AM 35.1 °F 25.2 °F 29.1 °F 79% 29.74 in 10.0 mi NW 16.1 mph - N/A   Mostly Cloudy
4:15 AM 32.2 °F 18.6 °F 24.1 °F 72% 29.77 in 10.0 mi NNW 26.5 mph 36.8 mph N/A   Overcast
4:35 AM 30.2 °F 18.1 °F 22.1 °F 72% 29.78 in 10.0 mi NNW 18.4 mph 33.4 mph N/A Snow Light Snow
4:55 AM 29.1 °F 15.4 °F 19.8 °F 68% 29.80 in 10.0 mi NNW 23.0 mph 33.4 mph N/A Snow Light Snow
5:15 AM 27.5 °F 12.6 °F 16.0 °F 62% 29.82 in 7.0 mi NNW 25.3 mph 31.1 mph N/A Snow Light Snow
5:35 AM 24.8 °F 8.7 °F 16.7 °F 71% 29.83 in 4.0 mi NW 26.5 mph 35.7 mph N/A Snow Light Snow
5:55 AM 24.6 °F 9.4 °F 10.4 °F 55% 29.84 in 10.0 mi NNW 23.0 mph 33.4 mph N/A   Overcast
6:15 AM 24.1 °F 6.9 °F 6.1 °F 46% 29.85 in 10.0 mi NNW 29.9 mph 36.8 mph N/A   Overcast
6:35 AM 22.1 °F 5.4 °F 1.9 °F 42% 29.87 in 10.0 mi North 25.3 mph 31.1 mph N/A   Overcast
6:55 AM 20.7 °F 4.9 °F 0.9 °F 42% 29.89 in 10.0 mi North 20.7 mph 32.2 mph N/A   Mostly Cloudy
7:15 AM 18.7 °F 0.5 °F -4.2 °F 36% 29.90 in 10.0 mi NNW 26.5 mph 36.8 mph N/A   Scattered Clouds
7:35 AM 17.2 °F -1.8 °F -4.4 °F 38% 29.92 in 10.0 mi NNW 27.6 mph 38.0 mph N/A   Clear
7:55 AM 16.5 °F -1.4 °F -3.5 °F 41% 29.93 in 10.0 mi NNW 23.0 mph 32.2 mph N/A   Clear
8:15 AM 16.2 °F 0.3 °F -1.5 °F 46% 29.94 in 10.0 mi NNW 17.3 mph 25.3 mph N/A   Clear
8:35 AM 16.2 °F -0.2 °F -0.9 °F 47% 29.95 in 10.0 mi NNW 18.4 mph - N/A   Clear
8:55 AM 16.5 °F -1.0 °F 0.1 °F 49% 29.96 in 10.0 mi NNW 21.9 mph 28.8 mph N/A   Clear
9:15 AM 17.4 °F -0.5 °F 1.8 °F 50% 29.97 in 10.0 mi NNW 24.2 mph 32.2 mph N/A   Clear
9:35 AM 17.8 °F -0.7 °F 0.9 °F 48% 29.99 in 10.0 mi NNW 26.5 mph 36.8 mph N/A   Clear
9:55 AM 18.0 °F 0.6 °F -1.3 °F 43% 29.99 in 10.0 mi NNW 23.0 mph 33.4 mph N/A   Clear
10:15 AM 18.5 °F 0.9 °F -1.1 °F 42% 30.00 in 10.0 mi NNW 24.2 mph 32.2 mph N/A   Clear
10:35 AM 19.4 °F 1.4 °F -2.4 °F 38% 30.01 in 10.0 mi NNW 26.5 mph 31.1 mph N/A   Clear
10:55 AM 19.9 °F 3.2 °F -2.9 °F 37% 30.01 in 10.0 mi NNW 23.0 mph 33.4 mph N/A   Clear
11:15 AM 20.8 °F 4.7 °F -3.3 °F 35% 30.02 in 10.0 mi NNW 21.9 mph 32.2 mph N/A   Clear
11:35 AM 21.7 °F 5.6 °F -2.9 °F 34% 30.01 in 10.0 mi NNW 23.0 mph 27.6 mph N/A   Clear
11:55 AM 21.6 °F 5.7 °F -4.5 °F 32% 30.00 in 10.0 mi NNW 21.9 mph 26.5 mph N/A   Clear
12:15 PM 22.5 °F 7.2 °F -5.8 °F 29% 30.00 in 10.0 mi NW 20.7 mph 28.8 mph N/A   Clear
12:35 PM 23.2 °F 6.8 °F -8.5 °F 25% 30.00 in 10.0 mi NNW 25.3 mph 29.9 mph N/A   Clear
12:55 PM 23.0 °F 8.0 °F -8.9 °F 24% 30.00 in 10.0 mi NNW 20.7 mph - N/A   Clear
1:15 PM 24.1 °F 11.0 °F -5.3 °F 28% 30.01 in 10.0 mi NW 16.1 mph 24.2 mph N/A   Clear
1:35 PM 24.1 °F 10.1 °F -3.3 °F 30% 30.00 in 10.0 mi WNW 18.4 mph 29.9 mph N/A   Clear
1:55 PM 23.7 °F 9.3 °F -9.2 °F 23% 29.99 in 10.0 mi NW 19.6 mph 27.6 mph N/A   Clear
2:15 PM 24.3 °F 10.0 °F -4.2 °F 29% 29.98 in 10.0 mi WNW 19.6 mph 24.2 mph N/A   Clear
2:35 PM 24.4 °F 11.0 °F -6.9 °F 25% 29.97 in 10.0 mi NW 17.3 mph 23.0 mph N/A   Clear
2:55 PM 23.7 °F 12.1 °F -6.5 °F 26% 29.96 in 10.0 mi NW 12.7 mph 23.0 mph N/A   Clear
3:15 PM 24.1 °F 13.1 °F -3.3 °F 30% 29.95 in 10.0 mi NW 11.5 mph - N/A   Clear
3:35 PM 25.5 °F 12.9 °F -1.1 °F 32% 29.97 in 10.0 mi WNW 16.1 mph 23.0 mph N/A   Clear
3:55 PM 25.3 °F 14.7 °F -1.3 °F 32% 29.95 in 10.0 mi NW 11.5 mph - N/A   Clear
4:15 PM 24.1 °F 13.1 °F -2.4 °F 32% 29.93 in 10.0 mi WNW 11.5 mph - N/A   Clear
4:35 PM 24.6 °F 14.4 °F -3.5 °F 29% 29.93 in 10.0 mi NW 10.4 mph - N/A   Clear
4:55 PM 23.9 °F 15.8 °F -0.2 °F 35% 29.92 in 10.0 mi NW 6.9 mph - N/A   Clear
5:15 PM 23.9 °F 15.0 °F 1.6 °F 38% 29.92 in 10.0 mi WNW 8.1 mph - N/A   Clear
5:35 PM 23.7 °F 14.0 °F 1.6 °F 38% 29.92 in 10.0 mi West 9.2 mph - N/A   Scattered Clouds
5:55 PM 23.7 °F 17.8 °F 1.8 °F 39% 29.91 in 10.0 mi WNW 4.6 mph - N/A   Overcast
6:15 PM 23.2 °F - 3.0 °F 42% 29.90 in 10.0 mi Calm Calm - N/A   Overcast
6:35 PM 22.6 °F - 3.4 °F 44% 29.88 in 10.0 mi Calm Calm - N/A   Overcast
6:55 PM 22.6 °F - 7.3 °F 52% 29.88 in 10.0 mi Calm Calm - N/A   Mostly Cloudy
7:15 PM 23.0 °F - 6.1 °F 48% 29.86 in 10.0 mi Calm Calm - N/A   Overcast
7:35 PM 23.0 °F 15.8 °F 6.6 °F 50% 29.84 in 10.0 mi SE 5.8 mph - N/A   Overcast
7:55 PM 23.4 °F 14.3 °F 5.7 °F 47% 29.81 in 10.0 mi SSE 8.1 mph - N/A   Overcast
8:15 PM 23.4 °F 13.5 °F 5.9 °F 47% 29.77 in 10.0 mi SSE 9.2 mph - N/A   Overcast
9:15 PM 24.4 °F 14.2 °F 4.5 °F 42% 29.71 in 10.0 mi SSE 10.4 mph - N/A   Overcast
9:35 PM 24.8 °F 12.9 °F 3.9 °F 41% 29.68 in 10.0 mi SSE 13.8 mph - N/A   Overcast
9:55 PM 24.8 °F 13.4 °F 4.1 °F 41% 29.65 in 10.0 mi SSE 12.7 mph - N/A   Overcast
10:15 PM 25.3 °F 13.6 °F 4.8 °F 42% 29.63 in 10.0 mi SSE 13.8 mph 18.4 mph N/A   Overcast
10:35 PM 25.9 °F 14.3 °F 5.4 °F 42% 29.60 in 10.0 mi South 13.8 mph - N/A   Overcast
10:55 PM 26.6 °F 14.3 °F 5.9 °F 41% 29.57 in 10.0 mi South 16.1 mph - N/A   Overcast
11:15 PM 27.3 °F 15.6 °F 7.3 °F 43% 29.54 in 10.0 mi South 15.0 mph - N/A   Mostly Cloudy
11:35 PM 28.2 °F 16.8 °F 9.0 °F 44% 29.51 in 10.0 mi South 15.0 mph - N/A   Mostly Cloudy
11:55 PM 29.8 °F 18.4 °F 11.1 °F 46% 29.48 in 10.0 mi SSW 16.1 mph - N/A   Mostly Cloudy